This is the latest recevied weather packets stored in our database for station/object OE-11208. If no packets are shown the sender has not sent any weather packets the latest 10 day(s).
| Time | Temp. | Humidity | Pressure | Rain* | Wind** | Luminosity | Snow |
|---|---|---|---|---|---|---|---|
| 1788048694 | 13.33° C | 92% | 1018.8 hPa | 0 mm | - | 0 W/m² | - |
| 1788048322 | 13.33° C | 89% | 1018.8 hPa | 0 mm | - | 0 W/m² | - |
| 1788047722 | 13.33° C | 90% | 1018.8 hPa | 0 mm | - | 0 W/m² | - |
| 1788046894 | 13.33° C | 91% | 1018.7 hPa | 0 mm | - | 0 W/m² | - |
| 1788046522 | 13.33° C | 90% | 1018.7 hPa | 0 mm | - | 0 W/m² | - |
| 1788045921 | 13.33° C | 90% | 1018.8 hPa | 0 mm | - | 0 W/m² | - |
| 1788045322 | 13.33° C | 89% | 1018.6 hPa | 0 mm | - | 0 W/m² | - |
| 1788044722 | 13.33° C | 90% | 1018.7 hPa | 0 mm | - | 0 W/m² | - |
| 1788044122 | 13.33° C | 93% | 1018.6 hPa | 0 mm | - | 0 W/m² | - |
| 1788043295 | 13.33° C | 90% | 1018.6 hPa | 0 mm | - | 0 W/m² | - |
| 1788042921 | 13.33° C | 92% | 1018.6 hPa | 0 mm | - | 0 W/m² | - |
| 1788042321 | 13.33° C | 91% | 1018.6 hPa | 0 mm | - | 0 W/m² | - |
| 1788041495 | 13.33° C | 90% | 1018.6 hPa | 0 mm | - | 0 W/m² | - |
| 1788041122 | 12.78° C | 92% | 1018.6 hPa | 0 mm | - | 0 W/m² | - |
| 1788040522 | 12.78° C | 90% | 1018.7 hPa | 0 mm | - | 0 W/m² | - |
| 1788039695 | 12.78° C | 92% | 1018.9 hPa | 0 mm | - | 0 W/m² | - |
| 1788039321 | 12.22° C | 93% | 1019 hPa | 0 mm | - | 0 W/m² | - |
| 1788038722 | 12.78° C | 92% | 1018.9 hPa | 0 mm | - | 0 W/m² | - |
| 1788037895 | 12.22° C | 93% | 1019 hPa | 0 mm | - | 0 W/m² | - |
| 1788037521 | 11.67° C | 92% | 1019 hPa | 0 mm | - | 0 W/m² | - |
| 1788036922 | 12.22° C | 92% | 1018.8 hPa | 0 mm | - | 0 W/m² | - |
| 1788036095 | 12.22° C | 93% | 1019 hPa | 0 mm | - | 0 W/m² | - |
| 1788035721 | 11.67° C | 93% | 1019 hPa | 0 mm | - | 0 W/m² | - |
| 1788035122 | 12.22° C | 92% | 1018.8 hPa | 0 mm | - | 0 W/m² | - |
| 1788034295 | 12.22° C | 90% | 1018.8 hPa | 0 mm | - | 0 W/m² | - |
* Rain latest hour (hover to see other rain measurements)
** Current wind speed in m/s (hover to see current wind gust speed)